Regional Weather Roundup
Issued by NWS

Home | Current Version | Previous Version | Text Only | Print | Product List | Glossary On
Versions: 1 2 3 4 5 6 7 8 9 10 11 12 13 14 15 16 17 18 19 20 21 22 23 24 25 26 27 28 29 30 31 32 33 34 35 36 37 38 39 40 41 42 43 44 45 46 47 48 49 50
000
ASUS42 KTBW 180710
RWRFL
FLORIDA REGIONAL WEATHER ROUNDUP
NATIONAL WEATHER SERVICE TAMPA BAY RUSKIN FL
200 AM EST THU DEC 18 2014

NOTE: "FAIR" INDICATES FEW OR NO CLOUDS BELOW 12,000 FEET WITH NO
SIGNIFICANT WEATHER AND/OR OBSTRUCTIONS TO VISIBILITY.


FLZ001>010-012>015-112-114-115-180800-
PANHANDLE FLORIDA

CITY           SKY/WX    TMP DP  RH WIND       PRES   REMARKS
PENSACOLA      CLOUDY    46  40  79 N5        30.18S WCI  44
PENSACOLA NAS  CLOUDY    44  42  93 N5        30.18R WCI  42
MILTON NAS     CLOUDY    44  39  82 N3        30.19S
CRESTVIEW      CLOUDY    40  38  93 CALM      30.19S FOG
DUKE FIELD     FAIR      40  38  93 N1        30.18R
VALPARAISO     MOCLDY    45  40  84 N6        30.17S WCI  42
MARY ESTHER    CLOUDY    42  37  83 N7        30.17S WCI  37
TRI COUNTY     FAIR      42  41  96 CALM      30.18S
PANAMA CITY    FAIR      42  39  89 CALM      30.16S
TYNDALL AFB    MOCLDY    46  43  89 N3        30.17S
APALACHICOLA   MOCLDY    46  42  86 CALM      30.17S

STATION/POSITION SKY/WX   TEMP    WIND        PRES    WAVE   SWELL
                          AIR SEA DIR/SP/G            HT/PER HT/PER
                          (F)     (DEG/KT/KT) (MB)    (FT/S) (FT/S)
30.1N   87.6W              57 65   30/  6/  8 1021.4R   1
29.2N   88.2W              62 74   CALM  /  2 1021.4R   1/ 4
28.7N   86.0W              63 76  300/  2/  4 1021.4F   1/ 6   2/ 6
PANAMA CITY BEAC           48 62  360/  6/  8 1021.2F
CAPE SAN BLAS    NOT AVBL
TOWER C                    57     350/  7/  7 1021.3F
28.5N   84.5W              63 70  310/  4/  6 1021.5R   1/ 5   2/ 5

$$
FLZ011-016>038-118-127-128-134-139-239-180800-
NORTH FLORIDA

CITY           SKY/WX    TMP DP  RH WIND       PRES   REMARKS
MARIANNA       MOCLDY    43  42  97 CALM      30.16S
TALLAHASSEE    PTCLDY    39  35  86 CALM      30.16R
PERRY          MOCLDY    40  40 100 CALM      30.16F
CROSS CITY       N/A     38  36  92 CALM      30.15F
LAKE CITY      FAIR      41  39  93 CALM      30.15S
GAINESVILLE    MOCLDY    47  44  90 NW9       30.15R WCI  43
MAYPORT NAS    CLOUDY    48  46  93 CALM      30.14R
JACKSONVILLE   MOCLDY    43  42  97 CALM      30.14S
JAX NAS        CLOUDY    50  42  74 W5        30.15S
JAX CRAIG      CLOUDY    45  42  89 CALM      30.14S
JAX CECIL      CLOUDY    39  39 100 CALM      30.16S
FERNANDINA BEA FAIR      52  46  82 CALM      30.12S
ST AUGUSTINE   MOCLDY    49  45  86 W5        30.14S

STATION/POSITION SKY/WX   TEMP    WIND        PRES    WAVE   SWELL
                          AIR SEA DIR/SP/G            HT/PER HT/PER
                          (F)     (DEG/KT/KT) (MB)    (FT/S) (FT/S)
SHELL POINT                49     300/  5/  6   N/A
KEATON BEACH               51     360/  1/  2 1021.4F
CEDAR KEY                  55      CALM  /  1 1021.6F
FERNANDINA                 51 58  230/  3/  4 1019.8S
30.7N   81.3W                 60                N/A     1/11
MAYPORT                    52 60  270/  2/  4   N/A
31.4N   80.9W              56 57  280/  8/ 10 1019.8F   1/10   2/10
ST AUGUSTINE               50     290/  7/  8 1021.1R

$$
FLZ040-043>046-052-053-057-058-063-144-180800-
INTERIOR CENTRAL FLORIDA

CITY           SKY/WX    TMP DP  RH WIND       PRES   REMARKS
OCALA          CLEAR     41  37  87 CALM      30.16R
THE VILLAGES     N/A     45  45 100 CALM      30.06S FOG
LEESBURG       CLEAR     48  45  89 CALM      30.16S
SANFORD        CLEAR     49  44  83 CALM      30.14F
ORLANDO EXEC   CLEAR     51  46  83 SW5       30.13F
ORLANDO INTL   PTCLDY    47  44  90 S5        30.14F WCI  45
WINTER HAVEN   PTCLDY    51  47  86 W3        30.16F
LAKELAND       CLEAR     45  43  93 CALM      30.16F
BARTOW         FAIR      50  48  93 NW3       30.15F
OKEECHOBEE     PTCLDY    54  48  82 CALM      30.17S

$$
FLZ041-047-054-059-064-141-147-180800-
EAST CENTRAL FLORIDA

CITY           SKY/WX    TMP DP  RH WIND       PRES   REMARKS
DAYTONA BEACH  PTCLDY    48  46  93 SW3       30.13F
DELAND         SUNNY    N/A N/A N/A W3        30.15R
JFK SPACE CTR  PTCLDY    51  48  89 W3        30.13F
CAPE CANAVERAL PTCLDY    52  48  86 W6        30.12F
PATRICK AFB    CLEAR     57  49  76 W7        30.13F
MELBOURNE      CLEAR     51  49  92 W7        30.13F
VERO BEACH     CLEAR     56  53  90 W6        30.15S
FT PIERCE      FAIR      56  54  93 W5        30.14S
STUART         MOCLDY    59  55  88 W7        30.16R

STATION/POSITION SKY/WX   TEMP    WIND        PRES    WAVE   SWELL
                          AIR SEA DIR/SP/G            HT/PER HT/PER
                          (F)     (DEG/KT/KT) (MB)    (FT/S) (FT/S)
28.5N   80.2W              67 76  260/  8/ 10 1020.3F
28.9N   78.5W              70 76  280/  8/ 12 1019.9F   3/10   2/10
TRIDENT PIER               56 65  270/  3/  5 1019.9F
28.4N   80.5W                 66                N/A     1/11
27.6N   80.2W                 76                N/A     2/11

$$
FLZ050-056-061-142-242-148-248-149-249-151-251-155-255-
160-260-180800-
WEST CENTRAL FLORIDA

CITY           SKY/WX    TMP DP  RH WIND       PRES   REMARKS
CRYSTAL RIVER  FAIR      39  37  93 CALM      30.16S
INVERNESS      FAIR      41  41 100 CALM      30.16S
BROOKSVILLE    PTCLDY    40  39  97 CALM      30.16S FOG
ZEPHYRHILLS    FOG       41  41 100 CALM      30.17S VSB 1/4
CLEARWATER     CLEAR     49  48  97 S3        30.15F FOG
TAMPA INTL     PTCLDY    51  47  86 CALM      30.16F
TAMPA EXEC     CLEAR     45  43  93 CALM      30.16F FOG
PLANT CITY     CLEAR     48 N/A N/A CALM      30.17S
MACDILL AFB    CLEAR     48  46  93 N1        30.16F
PETER O KNIGHT CLEAR     54  52  94 CALM      30.16S
ST PETERSBURG  CLEAR     57  53  86 CALM      30.14F
SARASOTA       CLEAR     49  48  97 NE3       30.13F
VENICE         FAIR      54  50  87 CALM      30.16F

STATION/POSITION SKY/WX   TEMP    WIND        PRES    WAVE   SWELL
                          AIR SEA DIR/SP/G            HT/PER HT/PER
                          (F)     (DEG/KT/KT) (MB)    (FT/S) (FT/S)
CEDAR KEY                  55      CALM  /  1 1021.6F
28.5N   84.5W              63 70  310/  4/  6 1021.5R   1/ 5   2/ 5
27.3N   84.3W                 76                N/A     2/ 5
CLEARWATER BEACH           61 64  300/  5/  6 1020.7S
MIDDLE TAMPA BAY           60      20/  3/  4 1021.2S
VENICE                     58 64   30/  6/  6 1020.7F

$$
FLZ066-069-070-075>078-162-262-165-265-180800-
SOUTHWEST FLORIDA AND KEYS

CITY           SKY/WX    TMP DP  RH WIND       PRES   REMARKS
PUNTA GORDA    PTCLDY    54  52  93 NE3       30.17F
FT MYERS       MOCLDY    59  54  83 CALM      30.16F
SOUTHWEST INTL MOCLDY    60  57  89 CALM      30.16F
NAPLES         MOCLDY    64  62  93 N5        30.15F
MARCO ISLAND   PTSUNNY   61  55  82 CALM      30.16S
MARATHON       PTCLDY    67  61  81 N6        30.15S
KEY WEST NAS   MOCLDY    64  60  87 N6        30.15F
KEY WEST INTL  MOCLDY    66  61  84 N6        30.15F

STATION/POSITION SKY/WX   TEMP    WIND        PRES    WAVE   SWELL
                          AIR SEA DIR/SP/G            HT/PER HT/PER
                          (F)     (DEG/KT/KT) (MB)    (FT/S) (FT/S)
VENICE                     58 64   30/  6/  6 1020.7F
NAPLES                     66 72  340/ 10/ 12 1021.6F
26.0N   85.6W              71 75   80/  4/ 10 1020.7F   2/ 5
DRY TORTUGAS               71      30/  3/  4 1021.1F
NW FL BAY                  67     360/  5/  5 1021.3F
SAND KEY                   71      20/ 11/ 12 1020.7F
SOMBRERO KEY               69     360/ 11/ 12 1021.4F
LONG KEY                   68 68  360/  7/  8 1021.6F
MOLASSES REEF              69 77  340/ 13/ 13 1020.7S

$$
FLZ067-068-071>074-168-172>174-180800-
SOUTHEAST FLORIDA

CITY           SKY/WX    TMP DP  RH WIND       PRES   REMARKS
W PALM BEACH   CLOUDY    66  59  78 W5        30.13F
FT LAUDER-EXEC PTCLDY    62  56  80 W5        30.15S
FT LAUDERDALE  MOCLDY    65  56  72 W6        30.15S
POMPANO BEACH  MOCLDY    64  54  69 W5        30.15S
PEMBROKE PINES MOCLDY    61  56  83 W5        30.16F
OPA LOCKA      PTCLDY    60  55  83 W6        30.16S
MIAMI          PTCLDY    64  54  69 NW5       30.16S
WEST KENDALL   PTCLDY    59  55  87 NW5       30.16S
HOMESTEAD      MOCLDY    62  53  71 NW5       30.15F

STATION/POSITION SKY/WX   TEMP    WIND        PRES    WAVE   SWELL
                          AIR SEA DIR/SP/G            HT/PER HT/PER
                          (F)     (DEG/KT/KT) (MB)    (FT/S) (FT/S)
PORT EVERGLADES            66     270/  5/  7 1020.7
VIRGINIA KEY               68 70  330/  3/  4 1021.3F
LAKE WORTH                 66 76  250/  3/  5 1020.2F
SETTLEMENT POINT           70     120/  6/  7 1021.1F

$$



USA.gov is the U.S. government's official web portal to all federal, state and local government web resources and services.